Location: Chapel Hill
(35.9134°N, 79.0560°W)
Time: 13:01:53
(UTC-05:00)

Courier 1B - Pass Details

Date: 14 September 2025
Orbit: 962 x 1208 km, 28.3° (Epoch: 12 December)

Event Time Altitude Azimuth Distance (km) Brightness Sun altitude
Rises 14:05:36 0° 256° (WSW) 3,656 10.8 54.9°
Reaches altitude 10° 14:08:22 10° 250° (WSW) 2,694 10.3 54.7°
Maximum altitude 14:14:26 43° 181° (S) 1,309 9.9 54.1°
Drops below altitude 10° 14:20:32 10° 111° (ESE) 2,706 9.9 53.5°
Sets 14:23:20 0° 105° (ESE) 3,674 10.4 53.2°
